Current Version              Previous Version:    01  02  03  04  05  06  07  08  09  10  11  12  13  14  15  16  17  18  19  20  21  22  23  24  25  26  27  28  29  30  
   31  32  33  34  35  36  37  38  39  40  41  42  43  44  45  46  47  48  49  50  51  52  53  54  55  56  57  58  59  60  

[Printable]
062
ASUS44 KFWD 272115
RWRTX
NORTH TEXAS HOURLY WEATHER ROUNDUP
NATIONAL WEATHER SERVICE FORT WORTH TX
400 PM CDT WED AUG 27 2014

NOTE: "FAIR" INDICATES FEW OR NO CLOUDS BELOW 12,000 FEET WITH NO
SIGNIFICANT WEATHER AND/OR OBSTRUCTIONS TO VISIBILITY.

TXZ118-119-272200-
DALLAS/FORT WORTH METROPLEX

CITY           SKY/WX    TMP DP  RH WIND       PRES   REMARKS
DFW AIRPORT    PTSUNNY   94  66  39 SE8G17    29.99F HX  97
DALLAS LOVE    MOSUNNY   93  66  40 E9        29.98F HX  96
FTW MEACHAM    SUNNY     96  64  34 E13       29.98F HX  98
DAL-EXECUTIVE  SUNNY     96  64  34 E9        29.98F HX  98
FTW-ALLIANCE   MOSUNNY   95  63  34 E9        29.99F HX  96
FTW-NAS-JRB    MOSUNNY   98  59  27 NE7       30.02F HX  98
FTW-SPINKS     MOSUNNY   93  64  38 E8        30.00F HX  95
ARLINGTON      MOSUNNY   92  64  39 E12       29.98F HX  93
GRAND PRAIRIE  SUNNY     93  61  33 NE7       30.00F HX  93
MESQUITE       MOSUNNY   93  63  36 E10G16    29.99F HX  94
LANCASTER      MOSUNNY   96  62  32 E13       29.99F HX  97
$$

TXZ091>094-102>105-117-120-121-131>134-272200-
NORTH CENTRAL TEXAS

CITY           SKY/WX    TMP DP  RH WIND       PRES   REMARKS
SHRMAN/DENISON MOSUNNY   94  63  34 E8G18     30.02F HX  95
GAINESVILLE    MOSUNNY   92  66  41 E8        30.02F HX  95
BOWIE          MOSUNNY   96  59  29 SE7       30.01F HX  95
BRIDGEPORT     MOSUNNY   95  58  29 E8        30.02F HX  94
DECATUR        MOSUNNY   91  63  39 E12       30.01F HX  92
DENTON         SUNNY     93  64  38 SE9G16    29.99F HX  94
MCKINNEY       MOSUNNY   94  66  39 SE9       29.99F HX  97
GREENVILLE     MOSUNNY   93  59  31 E12       30.01F HX  92
ROCKWALL       PTSUNNY   92  68  44 SE7       29.99F HX  96
TERRELL        MOSUNNY   94  62  34 E10       30.00F HX  94
WAXAHACHIE     SUNNY     92  61  35 E6        30.00F HX  92
CLEBURNE       MOSUNNY   95  64  36 E7G15     30.01F HX  97
GRANBURY       MOSUNNY   95  62  33 E10       30.00F HX  95
$$

TXZ083>090-098>101-113>116-127>130-139>142-154-155-272200-
WESTERN NORTH TEXAS

CITY           SKY/WX    TMP DP  RH WIND       PRES   REMARKS
WICHITA FALLS  MOSUNNY   97  62  31 SE14G20   29.98F HX  98
WF-KICKAPOO    MOSUNNY   97  58  27 E9G18     29.99F HX  96
VERNON         MOSUNNY   99  57  24 SE10G16   29.98F HX  98
ABILENE        MOSUNNY   96  59  29 SE9       30.00F HX  95
ABILENE-DYESS  SUNNY     96  63  34 SE7       29.99F HX  97
BRECKENRIDGE   PTSUNNY   96  58  28 E7        29.98F HAZE    HX  95
GRAHAM         SUNNY     98  60  27 SE5       29.97F HX  98
MINERAL WELLS  MOSUNNY   95  62  33 E7        29.98F HX  96
STEPHENVILLE   PTSUNNY   92  60  33 E10G16    30.03F HX  92
COMANCHE         N/A     95  60  30 E8        30.01F HX  95
BROWNWOOD      PTSUNNY   93  61  33 E9G18     29.99F HX  93
COLEMAN        CLOUDY    93  60  32 NE10      30.01F HX  93
BRADY          MOSUNNY   93  61  33 VRB3      30.01F HX  93
$$

TXZ143>147-156>162-174-175-272200-
CENTRAL TEXAS

CITY           SKY/WX    TMP DP  RH WIND       PRES   REMARKS
WACO           SUNNY     96  62  32 E12       29.97F HX  97
WACO-MCGREGOR  SUNNY     97  63  32 E15       29.98F HX  98
HILLSBORO      MOSUNNY   95  60  31 E9        29.98F HX  94
CORSICANA      SUNNY     94  59  31 E13       29.99F HX  93
MEXIA          SUNNY     94  58  30 NE8       29.97F HX  92
HEARNE           N/A     94  60  31 E9        29.96F HX  94
CAMERON        SUNNY     97  59  28 NE7       29.95F HX  96
TEMPLE         MOSUNNY   97  61  30 NE3       29.97F HX  97
KILLEEN        PTSUNNY   93  63  36 E10       29.98F HX  94
KILLEEN-SKYLRK MOSUNNY   93  63  36 E13G20    29.97F HX  94
FORT HOOD      MOSUNNY   98  62  30 E10G16    29.98F HX  99
GATESVILLE     SUNNY     93  63  36 E3        30.00F HX  94
HAMILTON       MOSUNNY   95  60  30 E10G16    30.02F HX  95
LAMPASAS       PTSUNNY   96  66  37 NE7G16    29.99F HX  99
$$

TXZ095>097-106>112-122>126-135>138-148>153-164>167-272200-
EAST TEXAS

CITY           SKY/WX    TMP DP  RH WIND       PRES   REMARKS
PARIS          MOSUNNY   91  64  40 E5        30.02F HX  93
SULPHUR SPRNGS MOSUNNY   93  61  33 E10       30.03F HX  93
CLARKSVILLE    SUNNY     92  62  36 E5        30.02F HX  93
MOUNT PLEASANT PTSUNNY   91  60  35 E5        30.02F HX  91
GILMER         SUNNY     93  63  36 E9        30.02F HX  94
MINEOLA        PTSUNNY   91  61  35 SE5       30.02F HX  91
TYLER          SUNNY     94  57  28 VRB7      30.00F HX  92
LONGVIEW       MOSUNNY   93  59  31 SE7       30.00F HX  92
MARSHALL       SUNNY     96  56  25 SE3       30.02F HX  94
ATHENS         SUNNY     91  55  29 E7        29.99F
PALESTINE      SUNNY     93  58  30 E7        30.00F HX  91
JACKSONVILLE   MOSUNNY   90  61  37 E7        30.03F HX  90
HENDERSON      SUNNY     91  59  33 SE5       30.01F HX  90
NACOGDOCHES    SUNNY     91  64  40 CALM      29.98F HX  93
LUFKIN         MOSUNNY   96  67  38 VRB6      29.98F HX 100
$$

SUPPLEMENTAL OBSERVATIONS (CENTRAL)

CITY           SKY/WX    TMP DP  RH WIND       PRES   REMARKS
LAKE TEXOMA      N/A     91  66  43 E6          N/A  HX  94
CADDO GRASSLND   N/A     93  64  38 E5          N/A  HX  95
PAT MAYSE LAKE   N/A     91  66  43 E9          N/A  HX  94
ATHENS           N/A     93  57  29 SE12        N/A  HX  92
PALESTINE        N/A     97  63  32 SE3         N/A  HX  98
LAKE LIMESTONE   N/A     95  55  26 E7G15       N/A  HX  93
MCGREGOR         N/A     97  61  30 NE10        N/A  HX  97
TEMPLE           N/A     95  59  30 NE10        N/A  HX  94
$$

SUPPLEMENTAL OBSERVATIONS (WEST)

CITY           SKY/WX    TMP DP  RH WIND       PRES   REMARKS
MILLERS CREEK    N/A    N/A N/A N/A E8G16       N/A
POSSUM KINGDOM   N/A     97  59  28 E8G16       N/A  HX  96
LBJ GRASSLAND    N/A     97  64  34 E8          N/A  HX  99
GRANBURY         N/A     95  63  34 E9G17       N/A  HX  96
HAMBY            N/A     95  57  28 E9          N/A  HX  94
IVIE RESERVOIR   N/A     99  59  26 SE10        N/A  HX  98
COLORADO BEND    N/A    N/A N/A N/A NE7G16      N/A
$$

SUPPLEMENTAL OBSERVATIONS (EAST)

CITY           SKY/WX    TMP DP  RH WIND       PRES   REMARKS
CLARKSVILLE      N/A     90  64  43 E6          N/A  HX  91
CADDO LAKE       N/A     93  59  31 N5          N/A  HX  92
GILMER           N/A     93  59  31 SE7         N/A  HX  92
HENDERSON        N/A     93  59  31 NE5G13      N/A  HX  92
LUFKIN           N/A     93  64  38 MISG        N/A  HX  95
N SABINE NF      N/A     95  70  43 MISG        N/A  HX 101
S SABINE NF      N/A     93  66  40 VRB5        N/A  HX  96
$$

SUPPLEMENTAL OBSERVATIONS ARE A COLLECTION OF AUTOMATED INSTRUMENTS
THAT ARE MAINTAINED BY A VARIETY OF FEDERAL AND STATE AGENCIES.
CERTAIN ELEMENTS...SUCH AS HUMIDITY VALUES AND SUSTAINED WIND
SPEEDS...MAY BE APPROXIMATED.